Ft. Stewart, GA

6:21 AM EDT on May 27, 2018 (GMT -0400)
Wright Army Air Field

Weather History for KLHW - August, 2013

Change the Weather History Date:

Monday, August 12, 2013

  Actual Average Record
Temperature  
Mean Temperature 86 °F -  
Max Temperature 96 °F 90 °F 100 °F (1980)
Min Temperature 75 °F 70 °F 60 °F (1977)
Cooling Degree Days 20    
Growing Degree Days 36 (Base 50)    
Moisture  
Dew Point 76 °F    
Average Humidity 82    
Maximum Humidity 100    
Minimum Humidity 53    
Precipitation  
Precipitation 0.20 in - - ()
Sea Level Pressure  
Sea Level Pressure 30.04 in    
Wind  
Wind Speed 5 mph (SSW)    
Max Wind Speed 21 mph    
Max Gust Speed 29 mph    
Visibility 9 miles    
Events Rain , Thunderstorm    
Averages and records for this station are not official NWS values.
T = Trace of Precipitation, MM = Missing Value Source: NWS Daily Summary

Daily Weather History Graph

Daily Weather History Graph

Search for Another Location

Airport or City:

Astronomy

Aug. 12, 2013 Rise Set
Actual Time 6:49 AM EDT 8:12 PM EDT
Civil Twilight 6:23 AM EDT 8:38 PM EDT
Nautical Twilight 5:52 AM EDT 9:09 PM EDT
Astronomical Twilight 5:20 AM EDT 9:41 PM EDT
Moon 12:13 PM EDT (8/12) 11:31 PM EDT (8/12)
Length of Visible Light 14h 15m
Length of Day
13h 23m
Waxing Crescent, 31% of the Moon is Illuminated
Aug 12
Waxing Crescent
Aug 14
First Quarter
Aug 20
Full
Aug 28
Last Quarter
Sep 5
New

Hourly Weather History & Observations

Time (EDT) Temp. Heat Index Dew Point Humidity Pressure Visibility Wind Dir Wind Speed Gust Speed Precip Events Conditions
12:58 AM 79.5 °F - 77.4 °F 93% 30.12 in 10.0 mi South 2.3 mph - N/A   Clear
1:58 AM 78.4 °F - 76.6 °F 94% 30.10 in 10.0 mi South 3.5 mph - N/A   Clear
2:58 AM 77.5 °F - 76.1 °F 95% 30.08 in 10.0 mi Calm Calm - N/A   Clear
3:58 AM 77.0 °F - 75.6 °F 95% 30.09 in 10.0 mi Calm Calm - N/A   Clear
4:58 AM 76.5 °F - 75.7 °F 98% 30.09 in 10.0 mi Calm Calm - N/A   Clear
5:58 AM 76.5 °F - 76.1 °F 99% 30.10 in 10.0 mi Calm Calm - N/A   Scattered Clouds
6:58 AM 76.1 °F - 76.1 °F 100% 30.11 in 10.0 mi Calm Calm - N/A   Clear
7:58 AM 78.1 °F - 77.7 °F 99% 30.11 in 10.0 mi WSW 4.6 mph - N/A   Clear
8:58 AM 82.6 °F 92.0 °F 78.1 °F 86% 30.11 in 10.0 mi WSW 2.3 mph - N/A   Clear
9:58 AM 87.1 °F 100.9 °F 78.8 °F 76% 30.10 in 10.0 mi Variable 1.2 mph - N/A   Clear
10:58 AM 90.9 °F 107.1 °F 79.0 °F 68% 30.09 in 10.0 mi Variable 3.5 mph - N/A   Clear
11:58 AM 92.1 °F 107.1 °F 78.1 °F 63% 30.08 in 10.0 mi WNW 11.5 mph - N/A   Scattered Clouds
12:58 PM 93.6 °F 109.7 °F 78.1 °F 61% 30.07 in 10.0 mi West 9.2 mph - N/A   Partly Cloudy
1:58 PM 94.5 °F 109.9 °F 77.7 °F 58% 30.06 in 10.0 mi Variable 3.5 mph - N/A   Scattered Clouds
2:58 PM 94.5 °F 108.3 °F 76.8 °F 56% 30.03 in 10.0 mi WSW 9.2 mph - N/A   Partly Cloudy
3:58 PM 96.1 °F 110.2 °F 76.3 °F 53% 30.01 in 10.0 mi NNW 1.2 mph - N/A   Mostly Cloudy
4:58 PM 93.7 °F 108.6 °F 77.4 °F 59% 29.99 in 10.0 mi SW 2.3 mph - N/A   Partly Cloudy
5:58 PM 92.7 °F 107.9 °F 77.7 °F 62% 29.99 in 10.0 mi SSW 4.6 mph - N/A   Partly Cloudy
6:58 PM 91.9 °F 107.3 °F 78.3 °F 64% 29.99 in 10.0 mi SW 4.6 mph - N/A   Scattered Clouds
7:40 PM 89.6 °F 104.7 °F 78.8 °F 70% 29.98 in 10.0 mi SW 3.5 mph - N/A Thunderstorm Thunderstorm
7:58 PM 88.9 °F 102.1 °F 77.4 °F 69% 30.00 in 10.0 mi West 6.9 mph - N/A Thunderstorm Thunderstorm
8:22 PM 86.0 °F 96.9 °F 77.0 °F 74% 29.99 in 10.0 mi Calm Calm - N/A   Scattered Clouds
8:58 PM 84.9 °F 95.7 °F 77.5 °F 78% 30.01 in 10.0 mi ESE 2.3 mph - N/A Thunderstorm Mostly Cloudy
9:00 PM 84.2 °F 96.1 °F 78.8 °F 84% 30.00 in 10.0 mi SSE 4.6 mph - N/A Thunderstorm Thunderstorm
9:15 PM 84.2 °F 94.1 °F 77.0 °F 79% 30.02 in 10.0 mi WSW 15.0 mph 21.9 mph N/A Thunderstorm Mostly Cloudy
9:16 PM 84.2 °F 94.1 °F 77.0 °F 79% 30.02 in 10.0 mi WSW 18.4 mph 21.9 mph N/A Thunderstorm Thunderstorm
9:19 PM 82.4 °F 89.5 °F 75.2 °F 79% 30.02 in 10.0 mi SW 20.7 mph 28.8 mph N/A Rain , Thunderstorm Light Thunderstorms and Rain
9:24 PM 80.6 °F 86.2 °F 75.2 °F 84% 30.02 in 5.0 mi SSW 20.7 mph 28.8 mph N/A Rain , Thunderstorm Light Thunderstorms and Rain
9:27 PM 80.6 °F 86.2 °F 75.2 °F 84% 30.02 in 3.0 mi SSW 18.4 mph 28.8 mph N/A Rain , Thunderstorm Heavy Thunderstorms and Rain
9:32 PM 77.0 °F - 73.4 °F 89% 30.01 in 2.0 mi South 17.3 mph 27.6 mph N/A Rain , Thunderstorm Heavy Thunderstorms and Rain
9:37 PM 77.0 °F - 73.4 °F 89% 30.01 in 3.0 mi South 15.0 mph - N/A Rain , Thunderstorm Heavy Thunderstorms and Rain
9:42 PM 77.0 °F - 73.4 °F 89% 30.01 in 7.0 mi SSE 9.2 mph - N/A Rain , Thunderstorm Thunderstorms and Rain
9:47 PM 77.0 °F - 73.4 °F 89% 30.01 in 10.0 mi Variable 4.6 mph - N/A Rain , Thunderstorm Light Thunderstorms and Rain
9:58 PM 76.8 °F - 73.9 °F 91% 30.03 in 10.0 mi East 4.6 mph - 0.20 in Rain , Thunderstorm Light Thunderstorms and Rain
10:06 PM 77.0 °F - 75.2 °F 94% 30.03 in 10.0 mi East 5.8 mph - N/A Thunderstorm Thunderstorm
10:11 PM 77.0 °F - 75.2 °F 94% 30.03 in 10.0 mi East 2.3 mph - N/A   Scattered Clouds
10:51 PM 75.2 °F - 75.2 °F 100% 30.04 in 10.0 mi SSW 5.8 mph - N/A Thunderstorm Thunderstorm
10:58 PM 76.1 °F - 76.1 °F 100% 30.05 in 10.0 mi SW 9.2 mph - 0.00 in Thunderstorm Thunderstorm
11:13 PM 77.0 °F - 77.0 °F 100% 30.03 in 10.0 mi SSW 6.9 mph - N/A   Clear
11:58 PM 77.4 °F - 77.0 °F 99% 30.03 in 10.0 mi NW 1.2 mph - N/A   Partly Cloudy